TimePDT,TemperatureF,Dew PointF,Humidity,Sea Level PressureIn,VisibilityMPH,Wind Direction,Wind SpeedMPH,Gust SpeedMPH,PrecipitationIn,Events,Conditions,WindDirDegrees,DateUTC
12:56 AM,69.1,46.0,44,29.81,10.0,Calm,Calm,-,N/A,,Clear,0,2013-08-25 07:56:00
1:56 AM,66.9,46.9,49,29.82,10.0,South,4.6,-,N/A,,Clear,190,2013-08-25 08:56:00
2:56 AM,66.0,46.9,50,29.84,10.0,Calm,Calm,-,N/A,,Clear,0,2013-08-25 09:56:00
3:56 AM,64.9,52.0,63,29.86,10.0,Calm,Calm,-,0.01,Rain,Light Rain,0,2013-08-25 10:56:00
4:56 AM,63.0,52.0,67,29.85,10.0,Calm,Calm,-,0.00,,Partly Cloudy,0,2013-08-25 11:56:00
5:56 AM,62.1,50.0,65,29.88,10.0,Calm,Calm,-,N/A,,Clear,0,2013-08-25 12:56:00
6:56 AM,61.0,50.0,67,29.88,10.0,South,3.5,-,N/A,,Clear,170,2013-08-25 13:56:00
7:56 AM,64.0,50.0,60,29.89,10.0,Calm,Calm,-,N/A,,Clear,0,2013-08-25 14:56:00
8:56 AM,69.1,50.0,51,29.89,10.0,Calm,Calm,-,N/A,,Clear,0,2013-08-25 15:56:00
9:56 AM,72.0,48.9,44,29.88,10.0,Calm,Calm,-,N/A,,Clear,0,2013-08-25 16:56:00
10:56 AM,75.9,48.0,37,29.87,10.0,NW,5.8,-,N/A,,Clear,320,2013-08-25 17:56:00
11:56 AM,79.0,48.0,34,29.84,10.0,Calm,Calm,-,N/A,,Clear,0,2013-08-25 18:56:00
12:56 PM,81.0,46.9,30,29.82,10.0,NE,3.5,-,N/A,,Clear,50,2013-08-25 19:56:00
1:56 PM,84.9,48.0,28,29.79,10.0,ENE,4.6,-,N/A,,Clear,70,2013-08-25 20:56:00
2:56 PM,86.0,46.9,26,29.76,10.0,Calm,Calm,-,N/A,,Clear,0,2013-08-25 21:56:00
3:56 PM,89.1,46.9,23,29.73,10.0,NNW,4.6,-,N/A,,Clear,330,2013-08-25 22:56:00
4:56 PM,88.0,46.9,24,29.70,10.0,WSW,4.6,-,N/A,,Clear,240,2013-08-25 23:56:00
5:56 PM,87.1,46.9,25,29.71,10.0,West,6.9,-,N/A,,Clear,260,2013-08-26 00:56:00
6:56 PM,84.0,48.0,28,29.72,10.0,WNW,5.8,-,N/A,,Clear,300,2013-08-26 01:56:00
7:56 PM,82.0,46.9,29,29.75,10.0,West,11.5,19.6,N/A,Thunderstorm,Thunderstorm,280,2013-08-26 02:56:00
8:09 PM,82.4,48.2,30,29.78,10.0,WNW,24.2,33.4,N/A,,Clear,290,2013-08-26 03:09:00
8:56 PM,75.0,48.9,40,29.80,10.0,WNW,20.7,28.8,N/A,,Partly Cloudy,300,2013-08-26 03:56:00
9:56 PM,72.0,48.9,44,29.84,10.0,WNW,10.4,-,N/A,,Clear,300,2013-08-26 04:56:00
10:56 PM,70.0,50.0,49,29.87,10.0,SE,8.1,-,N/A,,Mostly Cloudy,130,2013-08-26 05:56:00
11:06 PM,68.0,51.8,56,29.92,9.0,SSW,9.2,-,0.00,Rain-Thunderstorm,Light Rain,200,2013-08-26 06:06:00
11:47 PM,66.2,55.4,68,29.89,10.0,East,12.7,-,0.04,Rain,Light Rain,80,2013-08-26 06:47:00
11:56 PM,66.9,55.0,66,29.86,10.0,ENE,10.4,18.4,0.04,,Scattered Clouds,70,2013-08-26 06:56:00